Regional Weather Roundup
Issued by NWS

Home | Current Version | Previous Version | Text Only | Print | Product List | Glossary Off
Versions: 1 2 3 4 5 6 7 8 9 10 11 12 13 14 15 16 17 18 19 20 21 22 23 24 25 26 27 28 29 30 31 32 33 34 35 36 37 38 39 40 41 42 43 44 45 46 47 48 49 50

000
ASUS43 KMKX 200620
RWRWI

WISCONSIN REGIONAL WEATHER ROUNDUP
NATIONAL WEATHER SERVICE MILWAUKEE/SULLIVAN WI
1200 AM CST MON NOV 20 2017

NOTE: "FAIR" INDICATES FEW OR NO CLOUDS BELOW 12,000 FEET WITH NO
SIGNIFICANT WEATHER AND/OR OBSTRUCTIONS TO VISIBILITY.

WIZ001-002-006>008-014>016-023>028-200700-
NORTHWEST WISCONSIN

CITY           SKY/WX    TMP DP  RH WIND       PRES   REMARKS
SUPERIOR ARPT  CLOUDY    16  14  93 CALM      29.79S
6HR MIN TEMP:  16; 6HR MAX TEMP:  22;

ASHLAND        PTCLDY    19  16  88 SW3       29.80F
6HR MIN TEMP:  19; 6HR MAX TEMP:  25;

HAYWARD        CLEAR     17  14  88 N5        29.78S WCI  10
6HR MIN TEMP:  17; 6HR MAX TEMP:  27;

SIREN          CLEAR     20  17  87 CALM      29.77S
6HR MIN TEMP:  20; 6HR MAX TEMP:  28;

CUMBERLAND     CLEAR     21  18  86 CALM      29.78S
RICE LAKE      CLEAR     22  18  83 E3        29.81S
6HR MIN TEMP:  22; 6HR MAX TEMP:  28;

CHETEK         CLEAR     22  18  87 CALM      29.80S
6HR MIN TEMP:  22; 6HR MAX TEMP:  27;

LADYSMITH      CLEAR     24  19  81 CALM      29.81S
6HR MIN TEMP:  23; 6HR MAX TEMP:  27;

EAU CLAIRE     CLEAR     24  20  84 CALM      29.81F
6HR MIN TEMP:  23; 6HR MAX TEMP:  28;

MENOMONIE      CLEAR     26  23  88 CALM      29.81S
6HR MIN TEMP:  24; 6HR MAX TEMP:  30;

NEW RICHMOND   CLEAR     30  24  79 S6        29.79S WCI  24
6HR MIN TEMP:  28; 6HR MAX TEMP:  30;

OSCEOLA        CLEAR     24  22  91 CALM      29.81S
6HR MIN TEMP:  24; 6HR MAX TEMP:  32;

$$

WIZ003>005-009-010-017-018-200700-
NORTH CENTRAL WISCONSIN

CITY           SKY/WX    TMP DP  RH WIND       PRES   REMARKS
MANITOWISH WTR PTCLDY    15  15 100 CALM      29.78S
6HR MIN TEMP:  13; 6HR MAX TEMP:  20;

ARBOR VITAE    CLOUDY    19  17  89 CALM      29.79S
6HR MIN TEMP:  18; 6HR MAX TEMP:  24;

WOODRUFF       CLOUDY    19  17  89 CALM      29.79S
6HR MIN TEMP:  18; 6HR MAX TEMP:  24;

RHINELANDER    PTCLDY   N/A N/A N/A SW5       29.80F
EAGLE RIVER    CLEAR     14  13  96 CALM      29.78F
6HR MIN TEMP:  13; 6HR MAX TEMP:  21;

LAND O LAKES   CLOUDY    12  10  91 CALM      29.81R
6HR MIN TEMP:  11; 6HR MAX TEMP:  21;

PHILLIPS       CLEAR     19  16  87 CALM      29.78S
6HR MIN TEMP:  21; 6HR MAX TEMP:  26;

TOMAHAWK       CLOUDY    17  15  91 CALM      29.81S
6HR MIN TEMP:  17; 6HR MAX TEMP:  25;

MEDFORD        CLEAR     23  20  86 S6        29.80S WCI  16
6HR MIN TEMP:  21; 6HR MAX TEMP:  24;

MERRILL        CLEAR     19  16  90 CALM      29.82F
6HR MIN TEMP:  20; 6HR MAX TEMP:  28;

$$

WIZ029-030-035-036-043>047-200700-
CENTRAL WISCONSIN

CITY           SKY/WX    TMP DP  RH WIND       PRES   REMARKS
WAUSAU         CLEAR     26  18  71 CALM      29.82F
6HR MIN TEMP:  24; 6HR MAX TEMP:  28;

MOSINEE        CLEAR     23  19  86 S7        29.84  WCI  15
MARSHFIELD     CLEAR     24  18  77 SW5       29.82F WCI  18
6HR MIN TEMP:  23; 6HR MAX TEMP:  25;

STEVENS POINT  CLEAR     22  18  86 S5        29.86S WCI  15
6HR MIN TEMP:  21; 6HR MAX TEMP:  27;

WAUPACA        PTCLDY    27  20  75 CALM      29.88F
6HR MIN TEMP:  26; 6HR MAX TEMP:  29;

WAUTOMA        CLEAR     21  17  84 CALM      29.90F
6HR MIN TEMP:  21; 6HR MAX TEMP:  28;

WISC RAPIDS    CLEAR     27  21  78 SW7       29.87F WCI  19
6HR MIN TEMP:  23; 6HR MAX TEMP:  28;

CAMP DOUGLAS   CLEAR    N/A N/A N/A SW10      29.88F
$$

WIZ011>013-019>022-031-037>040-048>050-200700-
NORTHEAST WISCONSIN

CITY           SKY/WX    TMP DP  RH WIND       PRES   REMARKS
ANTIGO         CLOUDY    22  17  81 S3        29.82F
6HR MIN TEMP:  21; 6HR MAX TEMP:  26;

SHAWANO        CLEAR     28  19  69 CALM      29.87S
6HR MIN TEMP:  28; 6HR MAX TEMP:  31;

OCONTO         CLEAR     22  17  78 CALM      29.88F
6HR MIN TEMP:  22; 6HR MAX TEMP:  28;

STURGEON BAY   CLEAR     29  19  66 SW8       29.89F WCI  21
6HR MIN TEMP:  28; 6HR MAX TEMP:  31;

GREEN BAY      PTCLDY    29  22  75 SW7       29.89F WCI  22
6HR MIN TEMP:  29; 6HR MAX TEMP:  30;

MANITOWOC      CLOUDY    29  21  72 SW6       29.92F WCI  23
6HR MIN TEMP:  28; 6HR MAX TEMP:  31;

APPLETON       CLOUDY    28  19  69 SW10      29.87F WCI  19
CLINTONVILLE   CLOUDY    27  18  69 SW6       29.87F WCI  20
OSHKOSH        CLOUDY    30  22  72 SW12      29.89F WCI  20
6HR MIN TEMP:  26; 6HR MAX TEMP:  30;

$$

WIZ032>034-041-042-053>061-200700-
SOUTHWEST WISCONSIN

CITY           SKY/WX    TMP DP  RH WIND       PRES   REMARKS
LA CROSSE      CLOUDY    35  26  69 SE12      29.88F WCI  27
6HR MIN TEMP:  33; 6HR MAX TEMP:  36;

SPARTA         CLOUDY    31  24  76 S3        29.88F
6HR MIN TEMP:  30; 6HR MAX TEMP:  32;

VIROQUA        CLOUDY    32  26  80 SW10      29.87F WCI  24
6HR MIN TEMP:  29; 6HR MAX TEMP:  32;

BOSCOBEL       CLOUDY    27  22  81 CALM      29.94F
6HR MIN TEMP:  25; 6HR MAX TEMP:  32;

PRAIRIE DU CHI CLOUDY    35  23  63 CALM      29.92F
6HR MIN TEMP:  30; 6HR MAX TEMP:  36;

PLATTEVILLE    CLOUDY    30  26  84 S7        29.96F WCI  23
6HR MIN TEMP:  27; 6HR MAX TEMP:  30;

$$

WIZ056-057-062-063-064-067-068-200700-
SOUTH CENTRAL WISCONSIN

CITY           SKY/WX    TMP DP  RH WIND       PRES   REMARKS
REEDSBURG      CLOUDY    32  23  69 SW5       29.91F WCI  27
6HR MIN TEMP:  29; 6HR MAX TEMP:  32;

BARABOO/DELLS  CLOUDY    32  22  68 SW12      29.91S WCI  23
6HR MIN TEMP:  28; 6HR MAX TEMP:  32;

LONE ROCK      CLOUDY    27  22  81 CALM      29.94F
6HR MIN TEMP:  22; 6HR MAX TEMP:  31;

MINERAL POINT  CLOUDY    32  27  80 S8        29.94F WCI  25
MADISON        CLOUDY    32  23  69 SW9G20    29.94F WCI  24
6HR MIN TEMP:  30; 6HR MAX TEMP:  32;

MIDDLETON      CLOUDY    33  24  69 SW13G18   29.94F WCI  23
6HR MIN TEMP:  30; 6HR MAX TEMP:  33;

WATERTOWN      CLEAR     27  23  84 SW8       29.95F WCI  19
6HR MIN TEMP:  26; 6HR MAX TEMP:  29;

MONROE         CLOUDY    30  23  74 SW17      29.96F WCI  18
JANESVILLE     CLOUDY    30  23  74 SW9       29.98F WCI  22
$$

WIZ051-052-058>065-066-070>072-200700-
SOUTHEAST WISCONSIN

CITY           SKY/WX    TMP DP  RH WIND       PRES   REMARKS
MILWAUKEE      MOCLDY    31  21  66 SW13      29.98F WCI  21
6HR MIN TEMP:  30; 6HR MAX TEMP:  32;

WAUKESHA       CLEAR     28  19  69 S5        29.98S WCI  23
MILWAUKEE/TIMM PTCLDY    30  19  64 SW9       29.98S WCI  22
RACINE         PTCLDY    31  21  66 SW12G20   30.00F WCI  22
6HR MIN TEMP:  30; 6HR MAX TEMP:  31;

BURLINGTON     CLEAR     32  27  81 SW14      29.98F WCI  22
6HR MIN TEMP:  27; 6HR MAX TEMP:  32;

KENOSHA        CLEAR     32  21  64 SW14      30.00F WCI  22
6HR MIN TEMP:  28; 6HR MAX TEMP:  32;

FOND DU LAC    PTCLDY    29  20  69 SW13      29.91F WCI  19
6HR MIN TEMP:  26; 6HR MAX TEMP:  30;

SHEBOYGAN      CLOUDY    31  23  72 SW10      29.92F WCI  22
6HR MIN TEMP:  27; 6HR MAX TEMP:  31;

WEST BEND      CLOUDY    30  21  69 SW9       29.94F WCI  22
JUNEAU         CLEAR     26  21  82 SW8       29.95S WCI  18
6HR MIN TEMP:  26; 6HR MAX TEMP:  28;

$$

LSZ147-162-200700-
LAKE SUPERIOR

STATION/POSITION TIME  TEMP    WIND        PRES    WAVE
                       AIR SEA DIR/SP/G            HT/PER
                 (UTC) (F)     (DEG/KT/KT) (MB)    (FT/S)
DEVILS ISLAND    0600   30     170/  4/  5 1009.8F
SAXON HARBOR     0540   26     190/  4/  7 1008.8F
$$

LMZ867-665-643>646-200700-
LAKE MICHIGAN

STATION/POSITION TIME  TEMP    WIND        PRES    WAVE
                       AIR SEA DIR/SP/G            HT/PER
                 (UTC) (F)     (DEG/KT/KT) (MB)    (FT/S)
N MID LAKE BUOY  0550   35 48  250/ 16/ 21 1012.7F   3/ 4
NORTHPORT PIER   0540   33     250



USA.gov is the U.S. government's official web portal to all federal, state and local government web resources and services.